GW1009 Weather Reports


time (UTC)temp
F
wind
direction
speed
knots
gust
knots
rain 1hr
in
rain 24hr
in
rain mn
in
humidity
%
barometer
mb
20260901225526 65 106 5.2 8.7 0.00 0.17 0.17 93 1013.9
20260901225025 65 143 6.1 8.7 0.00 0.17 0.17 93 1014.0
20260901224525 65 145 4.3 9.6 0.00 0.17 0.17 93 1013.9
20260901224024 66 108 5.2 9.6 0.00 0.17 0.17 93 1014.0
20260901223524 66 128 5.2 8.7 0.00 0.17 0.17 93 1014.0
20260901223025 66 126 4.3 7.8 0.00 0.17 0.17 93 1013.9
20260901222525 66 115 2.6 7.8 0.00 0.17 0.17 93 1013.7
20260901222024 66 96 4.3 7.8 0.00 0.17 0.17 93 1013.8
20260901221524 66 117 4.3 7.8 0.00 0.17 0.17 93 1013.9
20260901221024 66 122 4.3 9.6 0.00 0.17 0.17 93 1013.9
20260901220522 66 125 4.3 9.6 0.00 0.17 0.17 93 1013.8
20260901220022 66 126 2.6 7.0 0.00 0.17 0.17 93 1013.9
20260901215522 66 97 3.5 7.0 0.00 0.17 0.17 93 1013.9
20260901215024 66 121 1.7 7.0 0.00 0.17 0.17 92 1013.8
20260901214537 66 109 3.5 7.0 0.00 0.17 0.17 92 1013.8
20260901214022 66 130 1.7 7.0 0.00 0.17 0.17 92 1014.0
20260901213524 66 99 1.7 7.0 0.00 0.17 0.17 92 1014.0
20260901213021 66 88 2.6 6.1 0.00 0.17 0.17 92 1014.0
20260901212521 66 121 0.9 7.0 0.00 0.17 0.17 92 1014.0
20260901212023 66 104 3.5 7.8 0.00 0.17 0.17 92 1014.0
20260901211521 66 108 3.5 7.8 0.00 0.17 0.17 92 1013.9
20260901211020 66 123 0.9 7.8 0.00 0.17 0.17 92 1013.8
20260901210520 66 114 2.6 7.8 0.00 0.17 0.17 92 1013.8
20260901210020 66 128 1.7 6.1 0.00 0.17 0.17 92 1013.7
20260901205520 66 107 1.7 6.1 0.00 0.17 0.17 92 1013.6
20260901205020 66 87 0.9 6.1 0.00 0.17 0.17 93 1013.7
20260901204526 66 138 0.0 6.1 0.00 0.17 0.17 93 1013.6
20260901204020 66 94 1.7 7.0 0.00 0.17 0.17 92 1013.6
20260901203520 66 107 0.9 7.8 0.00 0.17 0.17 92 1013.7
20260901203019 66 109 2.6 8.7 0.00 0.17 0.17 92 1013.7
20260901202518 66 134 3.5 8.7 0.00 0.17 0.17 92 1013.7
20260901202019 66 130 1.7 7.8 0.00 0.17 0.17 92 1013.7
20260901201518 66 111 2.6 7.8 0.00 0.17 0.17 92 1013.6
20260901201019 66 105 3.5 7.0 0.00 0.17 0.17 92 1013.5
20260901200520 66 90 2.6 7.0 0.00 0.17 0.17 92 1013.6
20260901200119 66 109 0.9 7.8 0.00 0.17 0.17 92 1013.6
20260901195517 66 99 3.5 7.8 0.00 0.17 0.17 92 1013.7
20260901195017 66 105 0.9 7.0 0.00 0.17 0.17 92 1013.8
20260901194518 66 92 1.7 7.8 0.00 0.17 0.17 92 1013.9
20260901194020 66 92 1.7 7.8 0.00 0.17 0.17 92 1013.8
20260901193517 67 118 2.6 7.0 0.00 0.17 0.17 92 1013.9
20260901193017 67 137 4.3 7.0 0.00 0.17 0.17 92 1013.9
20260901192517 67 64 1.7 7.8 0.00 0.17 0.17 92 1013.8
20260901192017 67 92 3.5 7.8 0.00 0.17 0.17 92 1013.8
20260901191533 67 146 2.6 8.7 0.00 0.17 0.17 92 1013.7
20260901191015 67 132 2.6 8.7 0.00 0.17 0.17 92 1013.6
20260901190518 67 114 2.6 7.0 0.00 0.17 0.17 92 1013.6
20260901190015 66 121 2.6 7.8 0.00 0.17 0.17 92 1013.5
20260901185515 66 126 1.7 7.0 0.00 0.17 0.17 92 1013.5
20260901185015 66 128 1.7 6.1 0.00 0.17 0.17 92 1013.5
20260901184514 66 119 1.7 8.7 0.00 0.17 0.17 93 1013.5
20260901184014 67 130 2.6 8.7 0.00 0.17 0.17 93 1013.3
20260901183513 67 91 2.6 7.0 0.00 0.17 0.17 93 1013.3
20260901183021 66 117 2.6 7.8 0.00 0.17 0.17 93 1013.3
20260901182514 67 106 4.3 7.8 0.00 0.17 0.17 93 1013.3
20260901182014 67 121 2.6 7.0 0.00 0.17 0.17 93 1013.3
20260901181514 67 105 3.5 7.8 0.00 0.17 0.17 93 1013.3
20260901181012 67 94 3.5 8.7 0.00 0.17 0.17 93 1013.2
20260901180517 67 106 7.0 8.7 0.00 0.17 0.17 93 1013.2
20260901180012 67 82 4.3 7.8 0.00 0.17 0.17 93 1013.2
20260901175512 67 89 5.2 7.8 0.00 0.17 0.17 93 1013.2
20260901175011 67 98 3.5 7.8 0.00 0.17 0.17 93 1013.2
20260901174511 67 82 1.7 5.2 0.00 0.17 0.17 93 1013.2
20260901174010 67 72 1.7 5.2 0.00 0.17 0.17 93 1013.2
20260901173514 67 88 2.6 5.2 0.00 0.17 0.17 93 1013.1
20260901173010 67 94 2.6 5.2 0.00 0.17 0.17 94 1013.0
20260901172509 67 105 0.9 3.5 0.00 0.17 0.17 94 1013.0
20260901172009 67 83 1.7 5.2 0.00 0.17 0.17 94 1013.0
20260901171509 67 79 2.6 6.1 0.00 0.17 0.17 94 1012.9
20260901171008 67 86 2.6 5.2 0.00 0.17 0.17 94 1013.0
20260901170508 67 86 1.7 3.5 0.00 0.17 0.17 94 1013.0
20260901170009 67 82 0.0 3.5 0.00 0.17 0.17 94 1013.0
20260901165508 67 82 0.9 3.5 0.00 0.17 0.17 94 1013.0
20260901165009 67 85 2.6 4.3 0.00 0.17 0.17 94 1012.9
20260901164508 67 74 2.6 4.3 0.00 0.17 0.17 94 1012.9
20260901164007 67 101 2.6 5.2 0.00 0.17 0.17 94 1012.9
20260901163507 67 113 1.7 3.5 0.00 0.17 0.17 94 1012.9
20260901163007 67 124 1.7 6.1 0.00 0.17 0.17 94 1012.9
20260901162508 67 131 2.6 6.1 0.00 0.17 0.17 94 1012.9
20260901162006 67 148 2.6 6.1 0.00 0.17 0.17 94 1012.9
20260901161507 67 115 1.7 5.2 0.00 0.17 0.17 94 1012.9
20260901161005 67 109 2.6 6.1 0.00 0.17 0.17 94 1012.9
20260901160504 66 105 2.6 7.0 0.00 0.17 0.17 94 1013.0
20260901160006 66 98 2.6 7.0 0.00 0.17 0.17 94 1013.0
20260901155504 66 153 3.5 7.8 0.00 0.17 0.17 94 1012.9
20260901155003 66 127 2.6 7.8 0.00 0.17 0.17 95 1012.9
20260901154503 66 126 2.6 7.8 0.00 0.17 0.17 95 1012.9
20260901154002 66 136 2.6 7.8 0.00 0.17 0.17 95 1012.9
20260901153503 66 138 3.5 6.1 0.01 0.17 0.17 95 1012.9
20260901153001 66 142 2.6 6.1 0.01 0.17 0.17 95 1013.0
20260901152601 66 137 1.7 7.0 0.01 0.17 0.17 95 1012.9
20260901152104 66 131 3.5 7.0 0.01 0.17 0.17 95 1012.9
20260901151600 66 146 2.6 7.0 0.01 0.17 0.17 95 1013.0
20260901151059 66 133 3.5 7.0 0.01 0.17 0.17 95 1013.0
20260901150557 65 107 2.6 7.0 0.01 0.17 0.17 95 1013.1
20260901150107 65 100 1.7 5.2 0.01 0.17 0.17 95 1013.3
20260901145557 65 106 1.7 6.1 0.01 0.17 0.17 95 1013.3
20260901145058 65 91 2.6 6.1 0.01 0.17 0.17 95 1013.2
20260901144559 65 94 1.7 5.2 0.01 0.17 0.17 95 1013.3
20260901144056 65 111 0.9 5.2 0.01 0.17 0.17 95 1013.3
20260901143556 65 136 0.9 5.2 0.00 0.16 0.16 95 1013.2
20260901143056 65 132 0.9 4.3 0.00 0.16 0.16 95 1013.2
20260901142556 65 94 2.6 4.3 0.00 0.16 0.16 95 1013.3
20260901142055 65 88 2.6 5.2 0.00 0.16 0.16 95 1013.3
20260901141602 65 96 2.6 5.2 0.00 0.16 0.16 95 1013.3
20260901141058 65 98 2.6 4.3 0.00 0.16 0.16 95 1013.0
20260901140554 65 94 2.6 4.3 0.00 0.16 0.16 95 1013.0
20260901140058 65 73 0.9 5.2 0.00 0.16 0.16 95 1012.9
20260901135556 65 103 1.7 5.2 0.00 0.16 0.16 95 1013.1
20260901135055 65 122 0.9 3.5 0.00 0.16 0.16 95 1013.0
20260901134554 65 105 0.9 6.1 0.00 0.16 0.16 95 1013.0
20260901134057 65 96 1.7 6.1 0.00 0.16 0.16 95 1012.9
20260901133553 65 108 2.6 5.2 0.00 0.16 0.16 95 1012.9
20260901133054 65 115 0.9 4.3 0.00 0.16 0.16 95 1013.0
20260901132553 65 130 2.6 6.1 0.00 0.16 0.16 95 1013.0
20260901132054 64 134 2.6 6.1 0.00 0.16 0.16 95 1013.1
20260901131553 65 146 0.9 4.3 0.00 0.16 0.16 95 1013.3
20260901131051 64 120 1.7 5.2 0.00 0.16 0.16 95 1013.5
20260901130550 64 103 1.7 4.3 0.00 0.16 0.16 95 1013.5
20260901130050 64 103 2.6 6.1 0.00 0.16 0.16 95 1013.5
20260901125550 64 123 1.7 6.1 0.00 0.16 0.16 95 1013.6
20260901125050 64 15 1.7 6.1 0.00 0.16 0.16 95 1013.5
20260901124551 64 121 1.7 5.2 0.00 0.16 0.16 95 1013.6
20260901124052 64 96 1.7 4.3 0.00 0.16 0.16 95 1013.6
20260901123550 64 134 1.7 5.2 0.00 0.16 0.16 95 1013.6
20260901123053 64 102 0.9 5.2 0.00 0.16 0.16 95 1013.7
20260901122550 64 114 1.7 6.1 0.00 0.16 0.16 95 1013.7
20260901122049 64 101 2.6 6.1 0.00 0.16 0.16 95 1013.7
20260901121551 64 102 1.7 4.3 0.00 0.16 0.16 95 1013.8
20260901121052 64 134 1.7 5.2 0.00 0.16 0.16 95 1014.0
20260901120552 64 142 1.7 4.3 0.00 0.16 0.16 95 1014.0
20260901120106 64 126 2.6 5.2 0.00 0.16 0.16 95 1014.0
20260901115549 64 139 2.6 6.1 0.00 0.16 0.16 95 1013.9
20260901115048 64 103 1.7 5.2 0.00 0.16 0.16 95 1013.9
20260901114552 64 76 2.6 4.3 0.00 0.16 0.16 94 1014.1
20260901114047 64 119 2.6 4.3 0.00 0.16 0.16 94 1013.9
20260901113547 65 103 1.7 3.5 0.01 0.16 0.16 95 1013.9
20260901113056 65 113 0.9 3.5 0.02 0.16 0.16 95 1013.9
20260901112546 65 111 0.0 3.5 0.02 0.16 0.16 95 1013.7
20260901112047 65 78 0.9 3.5 0.03 0.16 0.16 95 1013.8
20260901111547 65 102 1.7 3.5 0.03 0.16 0.16 95 1013.7
20260901111045 65 128 0.0 1.7 0.03 0.16 0.16 95 1013.7
20260901110546 65 219 0.0 0.0 0.03 0.16 0.16 94 1013.8
20260901110050 65 219 0.0 0.9 0.03 0.16 0.16 94 1013.9
20260901105546 65 219 0.0 0.9 0.03 0.16 0.16 95 1013.8
20260901105048 65 219 0.0 0.9 0.03 0.16 0.16 95 1014.0
20260901104545 65 219 0.0 0.9 0.03 0.16 0.16 95 1014.0
20260901104045 65 219 0.0 2.6 0.03 0.16 0.16 95 1013.7
20260901103544 65 221 0.0 2.6 0.02 0.15 0.15 95 1013.7
20260901103054 65 221 0.0 0.9 0.01 0.14 0.14 94 1013.8
20260901102544 65 221 0.0 0.9 0.00 0.13 0.13 94 1013.6
20260901102044 65 247 0.0 0.0 0.00 0.13 0.13 94 1013.9
20260901101544 65 247 0.0 0.0 0.00 0.13 0.13 94 1013.8
20260901101043 65 247 0.0 0.0 0.00 0.13 0.13 94 1013.8
20260901100546 65 247 0.0 0.0 0.00 0.13 0.13 94 1013.7
20260901100043 65 247 0.0 0.0 0.02 0.13 0.13 94 1013.7
20260901095543 65 247 0.0 0.9 0.04 0.13 0.13 94 1013.7
20260901095043 65 248 0.0 1.7 0.05 0.13 0.13 94 1013.6
20260901094547 65 248 0.0 1.7 0.06 0.13 0.13 94 1013.6
20260901094044 65 246 0.9 1.7 0.06 0.13 0.13 94 1013.7
20260901093542 65 177 0.0 2.6 0.07 0.13 0.13 94 1013.5
20260901093042 65 177 0.0 3.5 0.07 0.13 0.13 94 1013.5
20260901092542 65 165 0.9 4.3 0.07 0.13 0.13 94 1013.4
20260901092042 65 161 0.0 0.0 0.07 0.13 0.13 94 1013.4
20260901091542 65 161 0.0 1.7 0.07 0.13 0.13 94 1013.4
20260901091044 65 161 0.0 1.7 0.07 0.13 0.13 94 1013.4
20260901090541 65 161 0.0 1.7 0.07 0.13 0.13 94 1013.4
20260901090049 65 161 0.0 1.7 0.06 0.11 0.11 94 1013.5
20260901085539 65 163 0.0 0.9 0.04 0.09 0.09 94 1013.5
20260901085039 65 163 0.0 1.7 0.03 0.08 0.08 94 1013.4
20260901084539 65 163 0.0 5.2 0.02 0.07 0.07 94 1013.4
20260901084039 65 163 0.9 5.2 0.02 0.07 0.07 94 1013.4
20260901083539 64 191 1.7 5.2 0.01 0.06 0.06 94 1013.4
20260901083038 64 181 0.9 5.2 0.02 0.06 0.06 94 1013.4
20260901082538 64 185 2.6 5.2 0.02 0.06 0.06 94 1013.4
20260901082038 64 197 1.7 4.3 0.02 0.06 0.06 94 1013.4
20260901081538 64 132 0.0 2.6 0.02 0.06 0.06 94 1013.4
20260901081036 64 132 1.7 3.5 0.02 0.06 0.06 94 1013.5
20260901080536 64 148 0.9 3.5 0.04 0.06 0.06 94 1013.4
20260901080048 64 138 0.9 2.6 0.03 0.05 0.05 94 1013.4
20260901075535 64 134 0.9 2.6 0.03 0.05 0.05 94 1013.6
20260901075034 64 131 1.7 3.5 0.03 0.05 0.05 94 1013.5
20260901074534 64 142 1.7 3.5 0.03 0.05 0.05 94 1013.7
20260901074034 64 155 0.9 2.6 0.03 0.05 0.05 94 1013.7
20260901073533 64 158 0.0 2.6 0.03 0.05 0.05 94 1013.6
20260901073136 64 137 0.0 1.7 0.02 0.04 0.04 94 1013.7
20260901072532 64 137 0.0 0.0 0.02 0.04 0.04 94 1013.8
20260901072032 64 137 0.0 0.0 0.02 0.04 0.04 94 1013.9
20260901071535 64 137 0.0 0.9 0.02 0.04 0.04 94 1014.0
20260901071031 64 137 0.0 1.7 0.02 0.04 0.04 94 1013.9
20260901070530 64 137 0.0 2.6 0.00 0.02 0.02 94 1014.0
20260901070030 64 137 0.9 2.6 0.01 0.02 0.02 94 1014.1
20260901065531 64 136 0.9 2.6 0.01 0.02 0.02 94 1014.2
20260901065028 64 136 0.0 2.6 0.01 0.02 0.02 94 1014.2
20260901064530 64 136 0.0 3.5 0.02 0.02 0.02 94 1014.2
20260901064027 64 136 1.7 3.5 0.02 0.02 0.02 94 1014.3
20260901063527 64 132 0.9 2.6 0.02 0.02 0.02 94 1014.3
20260901063045 64 130 0.9 1.7 0.02 0.02 0.02 94 1014.4
20260901062526 64 129 0.0 1.7 0.02 0.02 0.02 94 1014.5
20260901062026 64 129 0.0 3.5 0.02 0.02 0.02 94 1014.5
20260901061526 64 129 1.7 3.5 0.02 0.02 0.02 94 1014.5
20260901061025 64 151 0.9 2.6 0.02 0.02 0.02 94 1014.6
20260901060527 64 134 0.9 2.6 0.02 0.02 0.02 94 1014.7
20260901060024 64 142 0.9 3.5 0.01 0.01 0.01 94 1014.7
20260901055524 64 138 0.9 3.5 0.01 0.01 0.01 94 1014.6
20260901055024 64 136 1.7 3.5 0.01 0.01 0.01 94 1014.7
20260901054523 64 143 1.7 2.6 0.00 0.00 0.00 94 1014.7
20260901054022 64 143 1.7 3.5 0.00 0.00 0.00 94 1014.8
20260901053521 64 128 1.7 3.5 0.00 0.00 0.00 94 1014.8
20260901053021 64 111 0.9 2.6 0.00 0.00 0.00 94 1014.9
20260901052520 64 130 0.0 0.0 0.00 0.00 0.00 94 1015.0
20260901052024 64 130 0.0 0.0 0.00 0.00 0.00 94 1015.1
20260901051520 64 130 0.0 0.0 0.00 0.00 0.00 94 1015.1
20260901051020 64 132 0.0 1.7 0.00 0.00 0.00 94 1015.2
20260901050522 64 132 0.0 2.6 0.00 0.00 0.00 94 1015.2
20260901050020 64 133 0.0 2.6 0.00 0.00 0.00 94 1015.4
20260901045520 64 157 0.9 3.5 0.00 0.00 0.00 94 1015.4
20260901045019 64 171 0.9 3.5 0.00 0.00 0.00 94 1015.4
20260901044528 64 140 0.0 2.6 0.00 0.00 0.00 94 1015.4
20260901044018 64 140 1.7 3.5 0.00 0.00 0.00 94 1015.3
20260901043519 64 140 1.7 3.5 0.00 0.00 0.00 94 1015.2
20260901043018 64 132 1.7 3.5 0.00 0.00 0.00 94 1015.0
20260901042516 64 135 0.0 1.7 0.00 0.00 0.00 94 1015.1
20260901042016 64 135 0.0 1.7 0.00 0.00 0.00 94 1015.2
20260901041525 64 143 0.0 0.0 0.00 0.00 0.00 94 1015.2
20260901041015 64 143 0.0 0.0 0.00 0.00 0.00 93 1015.3
20260901040514 64 143 0.0 0.9 0.00 0.00 0.00 93 1015.4
20260901040014 64 143 0.0 0.9 0.00 0.00 0.00 93 1015.3
20260901035513 64 143 0.0 1.7 0.00 0.02 0.00 93 1015.3
20260901035013 64 143 0.9 2.6 0.00 0.02 0.00 93 1015.3
20260901034528 64 143 0.9 2.6 0.00 0.02 0.00 93 1015.2
20260901034012 64 144 0.9 2.6 0.00 0.02 0.00 93 1015.2
20260901033512 64 145 0.9 1.7 0.00 0.02 0.00 93 1015.3
20260901033012 64 145 0.0 0.0 0.00 0.02 0.00 93 1015.4
20260901032512 64 145 0.0 0.0 0.00 0.02 0.00 93 1015.4
20260901032015 64 145 0.0 0.0 0.00 0.02 0.00 93 1015.4
20260901031514 64 145 0.0 0.0 0.00 0.02 0.00 93 1015.4
20260901031009 64 145 0.0 0.9 0.00 0.02 0.00 93 1015.5
20260901030509 64 145 0.0 0.9 0.00 0.02 0.00 93 1015.6
20260901030012 64 145 0.0 1.7 0.00 0.02 0.00 93 1015.5
20260901025509 64 145 0.0 2.6 0.00 0.03 0.00 93 1015.6
20260901025011 64 142 0.0 2.6 0.00 0.03 0.00 93 1015.6
20260901024509 64 142 0.9 2.6 0.00 0.03 0.00 93 1015.6
20260901024010 64 140 0.0 3.5 0.00 0.03 0.00 93 1015.5
20260901023509 63 144 1.7 4.3 0.00 0.03 0.00 93 1015.5
20260901023008 63 134 0.9 2.6 0.00 0.03 0.00 93 1015.6
20260901022509 63 131 0.9 3.5 0.00 0.03 0.00 93 1015.6
20260901022012 63 134 1.7 3.5 0.00 0.03 0.00 93 1015.6
20260901021508 63 130 1.7 3.5 0.00 0.03 0.00 93 1015.7
20260901021008 63 126 1.7 2.6 0.00 0.03 0.00 93 1015.8
20260901020511 63 102 0.9 1.7 0.00 0.03 0.00 93 1016.0
20260901020007 63 98 0.0 1.7 0.00 0.03 0.00 93 1016.1
20260901015507 64 98 0.0 2.6 0.00 0.03 0.00 93 1016.3
20260901015007 64 98 0.0 2.6 0.00 0.03 0.00 93 1016.2
20260901014507 64 130 0.9 1.7 0.00 0.03 0.00 93 1016.2
20260901014007 64 133 0.0 1.7 0.00 0.03 0.00 93 1016.1
20260901013507 64 133 0.0 2.6 0.00 0.03 0.00 92 1016.1
20260901013006 64 130 0.9 2.6 0.00 0.03 0.00 92 1016.1
20260901012507 64 136 0.9 2.6 0.00 0.03 0.00 92 1016.2
20260901012006 64 132 0.0 4.3 0.00 0.03 0.00 92 1016.2
20260901011508 64 150 0.9 4.3 0.00 0.03 0.00 92 1016.1
20260901011006 64 124 0.9 2.6 0.00 0.03 0.00 92 1016.0
20260901010506 64 124 0.9 2.6 0.00 0.03 0.00 92 1016.0
20260901010012 64 115 0.9 1.7 0.00 0.03 0.00 92 1015.9
20260901005506 64 113 0.0 1.7 0.00 0.03 0.00 92 1015.8
20260901005006 64 113 0.0 1.7 0.00 0.03 0.00 92 1015.8
20260901004505 64 113 0.0 1.7 0.00 0.03 0.00 92 1015.9
20260901004005 64 113 0.0 0.0 0.00 0.03 0.00 92 1015.9
20260901003507 64 113 0.0 1.7 0.00 0.03 0.00 92 1015.9
20260901003007 64 113 0.0 1.7 0.00 0.03 0.00 92 1015.8
20260901002505 64 113 0.0 1.7 0.00 0.03 0.00 92 1015.8
20260901002005 64 113 0.0 1.7 0.00 0.03 0.00 92 1015.7
20260901001508 64 114 0.0 1.7 0.00 0.03 0.00 92 1015.7
20260901001004 64 111 0.0 2.6 0.00 0.03 0.00 91 1015.6
20260901000503 64 113 0.0 2.6 0.00 0.03 0.00 91 1015.6
20260901000003 64 124 0.0 1.7 0.00 0.03 0.00 91 1015.8
20260831235503 64 124 0.0 1.7 0.00 0.03 0.00 91 1015.8
20260831235003 64 125 0.0 1.7 0.00 0.03 0.00 91 1015.9
20260831234502 64 124 0.0 1.7 0.00 0.03 0.00 91 1015.8
20260831234002 64 125 0.0 1.7 0.00 0.03 0.00 91 1015.8
20260831233503 64 125 0.0 2.6 0.00 0.03 0.00 91 1015.8
20260831233002 64 142 0.0 1.7 0.00 0.03 0.00 91 1015.8
20260831232502 64 142 0.0 1.7 0.00 0.03 0.00 91 1016.0
20260831232100 64 142 0.0 1.7 0.00 0.03 0.00 91 1016.0
20260831231603 64 142 0.0 2.6 0.00 0.03 0.00 90 1016.0
20260831231059 64 142 0.0 2.6 0.00 0.03 0.00 90 1016.1
20260831230558 64 142 0.9 2.6 0.00 0.03 0.00 90 1016.2
20260831230059 64 142 0.0 3.5 0.00 0.03 0.00 90 1016.2